DW1973 Weather Reports


Display with metric or nautical units.
time (UTC)temp
F
wind
direction
speed
MPH
gust
MPH
rain 1hr
in
rain 24hr
in
rain mn
in
humidity
%
barometer
mb
20260831200422 87 247 4.0 9.0 0.00 0.25 0.25 66 1013.2
20260831195913 87 209 3.0 9.0 0.00 0.25 0.25 66 1013.3
20260831195418 87 227 4.0 9.0 0.00 0.25 0.25 65 1013.3
20260831194922 87 232 4.0 9.0 0.00 0.25 0.25 65 1013.2
20260831194414 87 197 4.0 9.0 0.00 0.25 0.25 66 1013.2
20260831193923 87 205 4.0 9.0 0.00 0.25 0.25 64 1013.4
20260831193431 87 225 3.0 8.0 0.00 0.25 0.25 64 1013.5
20260831192921 88 207 4.0 10.0 0.00 0.25 0.25 63 1013.4
20260831192430 88 190 5.0 10.0 0.00 0.25 0.25 63 1013.5
20260831191918 88 248 4.0 9.0 0.01 0.25 0.25 64 1013.4
20260831191428 88 224 4.0 9.0 0.01 0.25 0.25 64 1013.6
20260831190915 88 213 4.0 8.0 0.01 0.25 0.25 63 1013.7
20260831190423 88 229 4.0 8.0 0.01 0.25 0.25 64 1013.7
20260831185932 87 218 4.0 11.0 0.01 0.25 0.25 65 1013.6
20260831185438 87 239 5.0 11.0 0.01 0.25 0.25 65 1013.6
20260831184924 86 232 3.0 11.0 0.01 0.25 0.25 68 1013.7
20260831184431 86 205 5.0 8.0 0.01 0.25 0.25 66 1013.7
20260831183921 86 204 3.0 10.0 0.01 0.25 0.25 68 1013.7
20260831183428 85 202 5.0 11.0 0.01 0.25 0.25 68 1013.6
20260831182938 85 224 5.0 11.0 0.01 0.25 0.25 68 1013.6
20260831182448 85 213 4.0 8.0 0.00 0.24 0.24 70 1013.7
20260831181913 84 224 4.0 11.0 0.00 0.24 0.24 70 1013.8
20260831181424 84 232 5.0 11.0 0.00 0.24 0.24 70 1013.9
20260831180931 83 186 5.0 11.0 0.00 0.24 0.24 72 1013.8
20260831180420 83 220 6.0 12.0 0.00 0.24 0.24 70 1014.0
20260831175928 83 195 5.0 9.0 0.00 0.24 0.24 72 1013.9
20260831175413 82 196 5.0 14.0 0.00 0.25 0.24 73 1014.1
20260831174922 82 219 6.0 14.0 0.00 0.25 0.24 72 1014.0
20260831174427 81 219 5.0 11.0 0.00 0.25 0.24 74 1014.0
20260831173915 81 218 5.0 11.0 0.00 0.25 0.24 74 1014.1
20260831173430 81 209 5.0 11.0 0.00 0.25 0.24 72 1014.2
20260831172918 80 203 6.0 10.0 0.00 0.25 0.24 73 1014.3
20260831172426 80 224 5.0 14.0 0.00 0.25 0.24 76 1014.3
20260831171915 79 188 8.0 14.0 0.00 0.25 0.24 75 1014.4
20260831171426 79 138 5.0 12.0 0.00 0.25 0.24 77 1014.6
20260831170913 78 142 7.0 12.0 0.00 0.25 0.24 78 1014.8
20260831170422 77 105 5.0 9.0 0.00 0.25 0.24 80 1014.9
20260831165914 77 95 3.0 7.0 0.00 0.25 0.24 83 1015.0
20260831165451 76 103 4.0 8.0 0.00 0.25 0.24 82 1015.1
20260831164920 76 360 4.0 8.0 0.00 0.25 0.24 85 1015.2
20260831164426 75 360 3.0 6.0 0.00 0.25 0.24 86 1015.3
20260831163932 75 360 3.0 6.0 0.00 0.25 0.24 86 1015.3
20260831163440 74 360 2.0 6.0 0.00 0.25 0.24 87 1015.3
20260831162924 74 32 4.0 6.0 0.00 0.25 0.24 88 1015.3
20260831162432 73 25 3.0 8.0 0.00 0.25 0.24 88 1015.3
20260831161920 73 25 3.0 8.0 0.00 0.25 0.24 90 1015.2
20260831161431 72 19 3.0 5.0 0.00 0.25 0.24 91 1015.3
20260831160918 72 17 3.0 6.0 0.00 0.25 0.24 91 1015.3
20260831160426 71 17 4.0 6.0 0.00 0.25 0.24 91 1015.3
20260831155919 71 17 2.0 8.0 0.00 0.25 0.24 91 1015.5
20260831155426 71 18 4.0 8.0 0.00 0.25 0.24 90 1015.3
20260831154932 71 50 4.0 6.0 0.00 0.25 0.24 90 1015.3
20260831154423 71 53 4.0 6.0 0.00 0.25 0.24 90 1015.5
20260831153932 71 53 3.0 5.0 0.00 0.25 0.24 90 1015.6
20260831153441 71 51 3.0 5.0 0.00 0.25 0.24 90 1015.6
20260831152928 71 33 4.0 6.0 0.00 0.25 0.24 90 1015.6
20260831152413 71 17 4.0 6.0 0.00 0.25 0.24 91 1015.6
20260831151922 70 19 3.0 6.0 0.01 0.25 0.24 91 1015.7
20260831151413 70 15 3.0 5.0 0.01 0.25 0.24 91 1015.6
20260831150920 70 17 4.0 6.0 0.02 0.25 0.24 90 1015.8
20260831150430 70 15 4.0 6.0 0.03 0.25 0.24 91 1015.8
20260831145950 70 15 4.0 7.0 0.08 0.25 0.24 91 1015.8
20260831145439 70 15 3.0 6.0 0.12 0.25 0.24 91 1015.8
20260831144925 70 17 4.0 6.0 0.14 0.25 0.24 91 1015.6
20260831144413 70 20 4.0 6.0 0.15 0.25 0.24 92 1015.5
20260831143921 70 24 4.0 8.0 0.15 0.25 0.24 92 1015.6
20260831143428 70 22 4.0 6.0 0.16 0.25 0.24 92 1015.5
20260831142933 69 27 4.0 6.0 0.17 0.25 0.24 92 1015.8
20260831142420 70 18 4.0 8.0 0.19 0.25 0.24 92 1015.8
20260831141928 70 19 5.0 7.0 0.20 0.24 0.23 92 1015.7
20260831141441 70 19 4.0 6.0 0.23 0.24 0.23 92 1015.7
20260831140949 70 19 3.0 5.0 0.22 0.23 0.22 92 1015.8
20260831140419 70 20 3.0 5.0 0.20 0.21 0.20 92 1015.9
20260831135926 70 19 3.0 4.0 0.15 0.16 0.15 92 1015.9
20260831135414 70 26 2.0 3.0 0.12 0.15 0.12 91 1016.0
20260831134922 70 24 1.0 2.0 0.10 0.13 0.10 91 1016.0
20260831134434 70 24 0.0 1.0 0.09 0.12 0.09 90 1016.1
20260831133942 70 26 0.0 5.0 0.09 0.12 0.09 89 1016.0
20260831133429 70 25 2.0 6.0 0.08 0.11 0.08 89 1015.8
20260831132920 70 21 4.0 7.0 0.07 0.10 0.07 89 1015.4
20260831132426 71 22 4.0 5.0 0.05 0.08 0.05 88 1015.9
20260831131936 71 24 2.0 3.0 0.02 0.05 0.02 87 1016.0
20260831131423 72 17 1.0 3.0 0.00 0.03 0.00 87 1016.0
20260831130928 72 17 0.0 2.0 0.00 0.03 0.00 84 1016.0
20260831130416 73 17 2.0 2.0 0.00 0.03 0.00 82 1016.0
20260831125948 73 36 0.0 1.0 0.00 0.03 0.00 81 1016.0
20260831125416 73 41 0.0 3.0 0.00 0.05 0.00 80 1016.1
20260831124923 73 37 0.0 3.0 0.00 0.05 0.00 80 1016.1
20260831124416 73 32 2.0 3.0 0.00 0.05 0.00 79 1015.7
20260831123922 74 26 0.0 1.0 0.00 0.05 0.00 78 1015.2
20260831123431 74 24 0.0 4.0 0.00 0.05 0.00 78 1015.4
20260831122918 74 24 2.0 4.0 0.00 0.05 0.00 78 1015.1
20260831122452 73 23 2.0 4.0 0.00 0.05 0.00 78 1015.0
20260831121940 73 22 2.0 3.0 0.00 0.05 0.00 78 1014.9
20260831121424 73 25 2.0 4.0 0.00 0.05 0.00 78 1014.8
20260831120929 73 24 2.0 4.0 0.00 0.05 0.00 78 1014.6
20260831120419 73 24 1.0 5.0 0.00 0.05 0.00 78 1014.6
20260831115930 73 22 0.0 4.0 0.00 0.05 0.00 78 1014.5
20260831115417 73 22 2.0 5.0 0.00 0.05 0.00 78 1014.3
20260831114923 73 25 3.0 6.0 0.00 0.05 0.00 78 1014.4
20260831114416 73 24 4.0 6.0 0.00 0.05 0.00 77 1014.3
20260831113923 74 24 4.0 9.0 0.00 0.05 0.00 77 1014.3
20260831113426 74 24 5.0 9.0 0.00 0.05 0.00 76 1014.2
20260831112915 74 26 4.0 11.0 0.00 0.05 0.00 76 1014.3
20260831112422 75 26 5.0 11.0 0.00 0.05 0.00 74 1014.1
20260831111931 75 27 4.0 10.0 0.00 0.05 0.00 73 1014.2
20260831111420 75 29 5.0 9.0 0.00 0.05 0.00 73 1014.3
20260831110926 74 27 3.0 6.0 0.00 0.05 0.00 74 1014.3
20260831110414 74 28 3.0 5.0 0.00 0.05 0.00 74 1014.1
20260831105926 74 28 3.0 5.0 0.00 0.05 0.00 74 1014.2
20260831105436 74 24 2.0 6.0 0.00 0.05 0.00 75 1014.2
20260831104922 74 26 2.0 4.0 0.00 0.05 0.00 75 1014.1
20260831104434 74 25 3.0 6.0 0.00 0.05 0.00 75 1014.1
20260831103943 74 26 2.0 6.0 0.00 0.05 0.00 75 1014.2
20260831103428 74 24 3.0 6.0 0.00 0.05 0.00 76 1014.2
20260831102938 74 26 3.0 6.0 0.00 0.05 0.00 77 1014.3
20260831102428 74 26 1.0 5.0 0.00 0.05 0.00 78 1014.3
20260831101916 74 23 3.0 5.0 0.00 0.05 0.00 78 1014.3
20260831101424 74 22 2.0 5.0 0.00 0.05 0.00 78 1014.1
20260831100931 74 24 3.0 6.0 0.00 0.05 0.00 78 1014.0
20260831100420 74 23 3.0 6.0 0.00 0.05 0.00 78 1013.9
20260831095914 74 26 3.0 5.0 0.00 0.05 0.00 78 1013.9
20260831095418 74 32 3.0 6.0 0.00 0.05 0.00 79 1013.9
20260831094927 74 34 3.0 6.0 0.00 0.05 0.00 79 1014.1
20260831094417 74 36 3.0 6.0 0.00 0.05 0.00 79 1014.1
20260831093928 74 36 3.0 5.0 0.00 0.05 0.00 79 1014.1
20260831093414 74 36 3.0 6.0 0.00 0.05 0.00 79 1014.2
20260831092921 74 35 3.0 6.0 0.00 0.05 0.00 79 1014.1
20260831092430 74 36 3.0 6.0 0.00 0.05 0.00 79 1014.2
20260831091940 74 35 4.0 6.0 0.00 0.05 0.00 79 1014.2
20260831091425 74 30 2.0 4.0 0.00 0.05 0.00 79 1014.2
20260831090930 74 36 2.0 5.0 0.00 0.05 0.00 80 1014.2
20260831090418 74 36 3.0 5.0 0.00 0.05 0.00 80 1014.2
20260831085930 74 36 3.0 5.0 0.00 0.05 0.00 80 1014.3
20260831085439 74 36 2.0 5.0 0.00 0.05 0.00 80 1014.4
20260831084954 74 36 2.0 5.0 0.00 0.05 0.00 80 1014.3
20260831084426 74 38 2.0 4.0 0.00 0.05 0.00 80 1014.3
20260831083933 74 38 2.0 5.0 0.00 0.05 0.00 80 1014.5
20260831083419 74 36 3.0 5.0 0.00 0.05 0.00 80 1014.3
20260831082926 74 38 2.0 5.0 0.00 0.05 0.00 80 1014.4
20260831082414 74 38 2.0 5.0 0.00 0.05 0.00 80 1014.2
20260831081951 74 35 1.0 3.0 0.00 0.05 0.00 81 1014.3
20260831081419 74 35 1.0 3.0 0.00 0.05 0.00 81 1014.4
20260831080927 74 34 1.0 3.0 0.00 0.05 0.00 81 1014.4
20260831080417 74 34 0.0 2.0 0.00 0.05 0.00 81 1014.3
20260831075927 74 34 1.0 2.0 0.00 0.05 0.00 81 1014.3
20260831075417 75 33 0.0 3.0 0.00 0.05 0.00 81 1014.4
20260831074931 75 32 1.0 3.0 0.00 0.05 0.00 80 1014.4
20260831074421 75 35 1.0 3.0 0.00 0.05 0.00 80 1014.4
20260831073926 75 38 1.0 4.0 0.00 0.05 0.00 79 1014.4
20260831073432 75 36 2.0 4.0 0.00 0.05 0.00 79 1014.5
20260831072940 75 38 2.0 4.0 0.00 0.05 0.00 79 1014.4
20260831072427 76 37 3.0 4.0 0.00 0.05 0.00 79 1014.5
20260831072003 76 32 1.0 3.0 0.00 0.05 0.00 79 1014.5
20260831071423 76 32 2.0 4.0 0.00 0.05 0.00 78 1014.5
20260831070931 76 32 2.0 4.0 0.00 0.05 0.00 78 1014.5
20260831070417 76 34 1.0 3.0 0.00 0.05 0.00 78 1014.6
20260831065926 76 34 2.0 3.0 0.00 0.05 0.00 77 1014.7
20260831065415 76 36 1.0 2.0 0.00 0.05 0.00 78 1014.8
20260831064951 76 34 1.0 2.0 0.00 0.05 0.00 78 1014.8
20260831064440 76 35 1.0 3.0 0.00 0.05 0.00 78 1014.7
20260831063925 76 38 1.0 3.0 0.00 0.05 0.00 77 1014.7
20260831063415 76 30 0.0 2.0 0.00 0.05 0.00 78 1014.7
20260831062925 76 30 1.0 2.0 0.00 0.05 0.00 78 1014.7
20260831062434 76 29 1.0 2.0 0.00 0.05 0.00 78 1014.7
20260831061942 76 28 1.0 3.0 0.00 0.05 0.00 79 1014.7
20260831061424 76 30 0.0 4.0 0.00 0.05 0.00 79 1014.6
20260831060932 76 40 1.0 5.0 0.00 0.05 0.00 79 1014.5
20260831060440 76 40 2.0 5.0 0.00 0.05 0.00 78 1014.5
20260831055930 76 40 2.0 6.0 0.00 0.05 0.00 79 1014.6
20260831055419 76 41 3.0 6.0 0.00 0.05 0.05 79 1014.5
20260831054927 76 40 2.0 5.0 0.00 0.05 0.05 79 1014.5
20260831054416 76 48 3.0 6.0 0.00 0.05 0.05 80 1014.4
20260831053927 76 44 2.0 6.0 0.00 0.05 0.05 81 1014.3
20260831053428 76 47 3.0 6.0 0.00 0.05 0.05 81 1014.3
20260831052915 76 50 4.0 7.0 0.00 0.05 0.05 82 1014.3
20260831052421 76 53 4.0 9.0 0.00 0.05 0.05 82 1014.2
20260831051928 76 130 5.0 9.0 0.00 0.05 0.05 83 1014.3
20260831051421 75 128 5.0 9.0 0.00 0.05 0.05 84 1014.3
20260831050931 75 124 4.0 9.0 0.00 0.05 0.05 84 1014.4
20260831050419 75 132 5.0 8.0 0.00 0.05 0.05 85 1014.3
20260831045929 75 134 5.0 8.0 0.00 0.05 0.05 85 1014.4
20260831045418 75 130 4.0 7.0 0.00 0.05 0.05 86 1014.4
20260831044924 75 130 4.0 7.0 0.00 0.05 0.05 87 1014.5
20260831044417 75 128 2.0 6.0 0.00 0.05 0.05 88 1014.5
20260831043925 75 121 3.0 6.0 0.00 0.05 0.05 88 1014.5
20260831043432 74 123 2.0 5.0 0.00 0.05 0.05 89 1014.5
20260831042920 74 124 3.0 8.0 0.00 0.05 0.05 89 1014.6
20260831042429 74 115 3.0 8.0 0.00 0.05 0.05 90 1014.7
20260831041917 74 123 3.0 7.0 0.00 0.05 0.05 90 1014.7
20260831041429 74 123 3.0 6.0 0.00 0.05 0.05 90 1014.7
20260831040918 74 123 3.0 5.0 0.00 0.05 0.05 91 1014.8
20260831040422 74 96 3.0 4.0 0.00 0.05 0.05 91 1014.8
20260831035914 74 101 2.0 3.0 0.00 0.05 0.05 91 1015.0
20260831035421 74 101 2.0 3.0 0.00 0.05 0.05 91 1015.1
20260831034931 74 96 1.0 3.0 0.00 0.05 0.05 92 1015.1
20260831034452 74 98 1.0 3.0 0.00 0.05 0.05 92 1015.3
20260831033938 74 102 2.0 3.0 0.00 0.05 0.05 92 1015.4
20260831033448 74 107 2.0 3.0 0.00 0.05 0.05 92 1015.5
20260831032915 75 107 0.0 3.0 0.00 0.05 0.05 92 1015.7
20260831032420 75 106 2.0 3.0 0.00 0.05 0.05 92 1015.8
20260831031928 75 114 0.0 2.0 0.00 0.05 0.05 91 1016.2
20260831031420 75 113 0.0 1.0 0.00 0.05 0.05 91 1016.2
20260831030957 75 123 0.0 1.0 0.00 0.05 0.05 91 1016.4
20260831030447 75 134 0.0 1.0 0.00 0.05 0.05 91 1016.3
20260831025917 75 134 0.0 1.0 0.00 0.05 0.05 91 1016.2
20260831025453 75 137 0.0 2.0 0.00 0.05 0.05 90 1016.0
20260831024922 75 136 0.0 2.0 0.00 0.05 0.05 90 1015.9
20260831024416 75 135 0.0 4.0 0.00 0.05 0.05 90 1015.9
20260831023953 75 134 1.0 4.0 0.00 0.05 0.05 90 1016.0
20260831023418 75 134 2.0 4.0 0.00 0.05 0.05 90 1016.0
20260831022923 75 132 2.0 3.0 0.00 0.05 0.05 90 1015.9
20260831022430 75 99 2.0 3.0 0.00 0.05 0.05 90 1015.9
20260831021941 75 135 1.0 2.0 0.00 0.05 0.05 90 1016.0
20260831021425 75 136 0.0 2.0 0.00 0.05 0.05 90 1016.1
20260831020915 75 135 0.0 3.0 0.00 0.05 0.05 91 1016.1
20260831020423 75 134 2.0 3.0 0.00 0.05 0.05 91 1016.0
20260831015916 75 117 1.0 2.0 0.00 0.05 0.05 91 1015.9
20260831015425 74 118 1.0 3.0 0.00 0.05 0.05 91 1015.8
20260831014930 75 118 1.0 3.0 0.00 0.05 0.05 91 1015.7
20260831014421 75 118 1.0 2.0 0.00 0.05 0.05 91 1015.8
20260831013928 75 117 0.0 0.0 0.00 0.05 0.05 91 1015.9
20260831013417 75 117 0.0 0.0 0.00 0.05 0.05 90 1015.8
20260831012928 75 117 0.0 1.0 0.00 0.05 0.05 90 1015.8
20260831012430 75 119 0.0 2.0 0.00 0.05 0.05 90 1015.8
20260831011940 75 116 0.0 0.0 0.00 0.05 0.05 90 1015.5
20260831011431 75 102 0.0 0.0 0.00 0.05 0.05 90 1015.6
20260831010918 75 96 0.0 1.0 0.00 0.05 0.05 89 1015.6
20260831010433 75 96 0.0 1.0 0.00 0.05 0.05 89 1015.4
20260831005921 75 95 0.0 3.0 0.00 0.05 0.05 89 1015.1
20260831005427 75 95 2.0 3.0 0.00 0.05 0.05 89 1015.0
20260831004937 75 123 2.0 4.0 0.00 0.05 0.05 90 1015.0
20260831004427 75 114 3.0 4.0 0.00 0.05 0.05 90 1014.9
20260831003916 75 86 2.0 4.0 0.00 0.05 0.05 90 1014.8
20260831003433 75 92 3.0 4.0 0.00 0.05 0.05 90 1014.9
20260831002937 75 98 2.0 4.0 0.00 0.05 0.05 90 1015.1
20260831002424 75 100 2.0 4.0 0.00 0.05 0.05 91 1015.4
20260831001933 75 122 0.0 3.0 0.00 0.05 0.05 90 1015.4
20260831001422 75 121 2.0 3.0 0.00 0.05 0.05 90 1015.4
20260831000930 75 120 1.0 3.0 0.00 0.05 0.05 90 1015.6
20260831000419 75 30 1.0 2.0 0.00 0.05 0.05 89 1015.7
20260830235956 76 27 0.0 2.0 0.00 0.05 0.05 89 1015.6
20260830235422 75 28 1.0 2.0 0.00 0.05 0.05 89 1015.8
20260830234929 76 29 0.0 0.0 0.00 0.05 0.05 89 1015.9
20260830234421 76 31 0.0 0.0 0.00 0.05 0.05 89 1015.9
20260830233930 76 30 0.0 1.0 0.00 0.05 0.05 89 1015.9
20260830233421 76 28 0.0 2.0 0.00 0.05 0.05 88 1015.9
20260830232948 76 30 1.0 3.0 0.00 0.05 0.05 88 1015.8
20260830232435 75 26 1.0 4.0 0.00 0.05 0.05 88 1015.5
20260830231942 75 26 3.0 4.0 0.00 0.05 0.05 88 1015.3
20260830231423 75 30 1.0 3.0 0.00 0.05 0.05 88 1015.6
20260830230931 76 28 2.0 3.0 0.00 0.05 0.05 88 1015.8
20260830230418 76 29 2.0 3.0 0.00 0.05 0.05 88 1015.6
20260830225928 76 30 1.0 2.0 0.00 0.05 0.05 89 1016.0
20260830225418 76 31 0.0 0.0 0.00 0.05 0.05 88 1016.2
20260830224929 76 31 0.0 0.0 0.00 0.05 0.05 88 1016.2
20260830224442 76 30 0.0 0.0 0.00 0.05 0.05 88 1016.3
20260830223948 76 31 0.0 0.0 0.00 0.05 0.05 88 1016.2
20260830223434 76 30 0.0 0.0 0.00 0.05 0.05 87 1016.3
20260830222941 76 31 0.0 0.0 0.00 0.05 0.05 87 1016.1
20260830222451 76 30 0.0 0.0 0.00 0.05 0.05 86 1015.9
20260830221938 76 30 0.0 0.0 0.00 0.05 0.05 86 1015.8
20260830221429 76 30 0.0 0.0 0.00 0.05 0.05 86 1015.9
20260830220938 76 29 0.0 0.0 0.00 0.05 0.05 86 1015.9
20260830220424 76 29 0.0 0.0 0.00 0.05 0.05 86 1015.7
20260830215937 76 28 0.0 0.0 0.00 0.05 0.05 85 1015.6
20260830215426 76 30 0.0 0.0 0.00 0.05 0.05 85 1015.6
20260830214934 76 31 0.0 2.0 0.00 0.05 0.05 85 1015.8
20260830214433 76 31 0.0 2.0 0.00 0.05 0.05 85 1015.8
20260830213940 76 30 1.0 3.0 0.00 0.05 0.05 85 1016.0
20260830213450 76 30 1.0 4.0 0.00 0.05 0.05 85 1016.0
20260830212917 76 30 2.0 4.0 0.00 0.05 0.05 86 1016.0
20260830212425 76 31 1.0 3.0 0.00 0.05 0.05 86 1016.1
20260830211934 76 31 1.0 3.0 0.00 0.05 0.05 86 1016.2
20260830211447 76 31 1.0 3.0 0.00 0.05 0.05 86 1016.3
20260830210934 76 33 1.0 3.0 0.00 0.05 0.05 86 1016.2
20260830210421 76 30 1.0 4.0 0.00 0.05 0.05 86 1016.3
20260830205933 75 30 2.0 4.0 0.00 0.05 0.05 86 1016.2
20260830205421 75 31 2.0 4.0 0.00 0.05 0.05 85 1016.2
20260830204931 75 27 1.0 4.0 0.00 0.05 0.05 86 1016.1
20260830204421 75 27 2.0 3.0 0.00 0.05 0.05 85 1016.0
20260830203922 75 34 1.0 3.0 0.00 0.05 0.05 86 1016.2
20260830203430 75 31 2.0 3.0 0.00 0.05 0.05 85 1016.1
20260830202936 75 32 1.0 3.0 0.00 0.05 0.05 83 1016.1
20260830202424 76 31 2.0 6.0 0.00 0.05 0.05 82 1016.2
20260830201930 76 33 2.0 6.0 0.00 0.05 0.05 81 1016.2
20260830201423 77 360 2.0 4.0 0.00 0.05 0.05 80 1016.4
20260830200932 77 360 2.0 4.0 0.00 0.05 0.05 79 1016.5